DLH425 KBOS-EDDM

Flight info

Callsign DLH425
Flight time N/A
Altitude 35000
Route LBSTA8 LBSTA DCT EBONY N567B TUDEP/M083F350 DCT 52N050W 54N040W 55N030W 55N020W DCT VENER/N0476F350 DCT KOKIB DCT OLAPO/N0478F370 DCT BOFUM Q37 DONAX/N0476F390 Q37 MALUD UL975 WAL M16 DOLAS DCT NAVPI DCT DODEN/N0485F330 DCT TABUM DCT BOMBI T104 HAREM/N0455F270 T104 ROKIL ROKIL1B
Aircraft A346/H-SDE2E3FGHIJ3J4J5M1RWXY/LB1D1

Departure

Time 2026-05-05 22:58
Airport Boston Logan International Airport (KBOS)

Arrival

Time N/A
Airport Munich Airport (EDDM)
Time Latitude Longitude Altitude Speed Heading
2026-05-05 22:29 42.36039 -71.01677 34 ft 0 kts 289°
2026-05-05 22:45 42.36033 -71.01655 34 ft 4 kts 289°
2026-05-05 22:45 42.36025 -71.01626 32 ft 4 kts 298°
2026-05-05 22:46 42.36012 -71.01605 31 ft 4 kts 332°
2026-05-05 22:46 42.35995 -71.01600 32 ft 4 kts
2026-05-05 22:46 42.35970 -71.01609 33 ft 4 kts 20°
2026-05-05 22:46 42.35952 -71.01618 32 ft 1 kts 19°
2026-05-05 22:47 42.35950 -71.01619 32 ft 0 kts 19°
2026-05-05 22:50 42.35990 -71.01600 32 ft 13 kts 19°
2026-05-05 22:51 42.36092 -71.01551 34 ft 16 kts 20°
2026-05-05 22:51 42.36159 -71.01519 34 ft 1 kts 24°
2026-05-05 22:51 42.36178 -71.01487 34 ft 6 kts 81°
2026-05-05 22:51 42.36182 -71.01426 34 ft 0 kts 72°
2026-05-05 22:52 42.36189 -71.01413 34 ft 6 kts 50°
2026-05-05 22:52 42.36254 -71.01374 34 ft 12 kts 18°
2026-05-05 22:52 42.36358 -71.01323 34 ft 22 kts 20°
2026-05-05 22:52 42.36511 -71.01249 34 ft 24 kts 19°
2026-05-05 22:53 42.36675 -71.01170 34 ft 26 kts 19°
2026-05-05 22:53 42.36788 -71.01157 34 ft 15 kts 332°
2026-05-05 22:53 42.36865 -71.01225 34 ft 10 kts
2026-05-05 22:53 42.36932 -71.01172 34 ft 13 kts 43°
2026-05-05 22:54 42.37012 -71.01095 34 ft 15 kts 28°
2026-05-05 22:54 42.37110 -71.01030 34 ft 17 kts 26°
2026-05-05 22:54 42.37209 -71.00966 34 ft 9 kts 25°
2026-05-05 22:54 42.37216 -71.00962 34 ft 0 kts 25°
2026-05-05 22:55 42.37234 -71.00950 34 ft 7 kts 25°
2026-05-05 22:55 42.37313 -71.00901 34 ft 17 kts 22°
2026-05-05 22:56 42.37420 -71.00850 34 ft 15 kts 19°
2026-05-05 22:56 42.37524 -71.00800 34 ft 17 kts 19°
2026-05-05 22:56 42.37638 -71.00744 34 ft 18 kts 20°
2026-05-05 22:56 42.37750 -71.00690 34 ft 15 kts 20°
2026-05-05 22:57 42.37827 -71.00636 34 ft 10 kts 53°
2026-05-05 22:57 42.37824 -71.00539 34 ft 12 kts 114°
2026-05-05 22:57 42.37790 -71.00480 34 ft 4 kts 178°
2026-05-05 22:57 42.37779 -71.00483 34 ft 0 kts 199°
2026-05-05 22:58 42.37725 -71.00508 34 ft 34 kts 199°
2026-05-05 22:58 42.37256 -71.00733 35 ft 106 kts 199°
2026-05-05 22:58 42.36368 -71.01164 42 ft 162 kts 202°
2026-05-05 22:58 42.35280 -71.01677 743 ft 165 kts 200°
2026-05-05 22:59 42.34167 -71.01849 1688 ft 164 kts 171°
2026-05-05 22:59 42.33200 -71.00941 2483 ft 182 kts 144°
2026-05-05 22:59 42.32408 -70.99492 2881 ft 201 kts 138°
2026-05-05 22:59 42.31581 -70.97869 3224 ft 218 kts 135°
2026-05-05 23:00 42.31272 -70.93293 3936 ft 281 kts 82°
2026-05-05 23:00 42.31747 -70.90624 4288 ft 301 kts 79°
2026-05-05 23:00 42.32264 -70.87799 4767 ft 315 kts 80°
2026-05-05 23:01 42.32756 -70.84898 5480 ft 317 kts 81°
2026-05-05 23:01 42.33216 -70.81961 6228 ft 320 kts 82°
2026-05-05 23:01 42.33662 -70.78986 6926 ft 325 kts 81°
2026-05-05 23:01 42.34395 -70.76078 7603 ft 330 kts 55°
2026-05-05 23:02 42.36004 -70.73938 8321 ft 322 kts 23°
2026-05-05 23:02 42.38056 -70.72946 9197 ft 308 kts
2026-05-05 23:02 42.40153 -70.72421 10020 ft 306 kts
2026-05-05 23:02 42.42265 -70.71833 10581 ft 316 kts
2026-05-05 23:03 42.44460 -70.71092 10905 ft 333 kts
2026-05-05 23:03 42.46768 -70.70382 11199 ft 348 kts
2026-05-05 23:03 42.49197 -70.69665 11503 ft 365 kts
2026-05-05 23:03 42.51728 -70.68916 11788 ft 381 kts
2026-05-05 23:04 42.54383 -70.68123 12090 ft 397 kts
2026-05-05 23:04 42.57067 -70.67312 12621 ft 404 kts
2026-05-05 23:04 42.59817 -70.66476 13357 ft 406 kts
2026-05-05 23:04 42.62591 -70.65634 14023 ft 409 kts
2026-05-05 23:05 42.65384 -70.64790 14625 ft 413 kts
2026-05-05 23:05 42.68216 -70.63989 15215 ft 416 kts
2026-05-05 23:05 42.71075 -70.63326 15790 ft 419 kts
2026-05-05 23:05 42.73971 -70.62692 16368 ft 423 kts
2026-05-05 23:06 42.76902 -70.62015 16964 ft 429 kts
2026-05-05 23:06 42.79735 -70.60587 17472 ft 441 kts 26°
2026-05-05 23:06 42.82236 -70.58123 18080 ft 447 kts 42°
2026-05-05 23:06 42.84362 -70.54976 18625 ft 451 kts 48°
2026-05-05 23:07 42.86411 -70.51707 19097 ft 455 kts 49°
2026-05-05 23:07 42.88466 -70.48402 19593 ft 458 kts 48°
2026-05-05 23:07 42.90528 -70.45112 20132 ft 461 kts 48°
2026-05-05 23:07 42.92651 -70.41751 20654 ft 464 kts 47°
2026-05-05 23:08 42.94747 -70.38452 21139 ft 467 kts 47°
2026-05-05 23:08 42.96889 -70.35088 21629 ft 470 kts 47°
2026-05-05 23:08 42.99048 -70.31702 22136 ft 473 kts 47°
2026-05-05 23:08 43.01214 -70.28304 22633 ft 476 kts 47°
2026-05-05 23:09 43.03400 -70.24875 23113 ft 479 kts 47°
2026-05-05 23:09 43.05601 -70.21418 23559 ft 482 kts 47°
2026-05-05 23:09 43.07818 -70.17932 23966 ft 485 kts 47°
2026-05-05 23:09 43.10038 -70.14437 24349 ft 488 kts 47°
2026-05-05 23:10 43.12273 -70.10918 24757 ft 490 kts 47°
2026-05-05 23:10 43.14518 -70.07379 25164 ft 492 kts 47°
2026-05-05 23:10 43.16772 -70.03819 25590 ft 495 kts 47°
2026-05-05 23:10 43.19008 -70.00284 25975 ft 497 kts 47°
2026-05-05 23:11 43.21270 -69.96702 26378 ft 499 kts 47°
2026-05-05 23:11 43.23553 -69.93085 26745 ft 502 kts 47°
2026-05-05 23:11 43.25851 -69.89438 27108 ft 505 kts 47°
2026-05-05 23:11 43.28151 -69.85781 27488 ft 507 kts 47°
2026-05-05 23:12 43.30487 -69.82062 27861 ft 510 kts 47°
2026-05-05 23:12 43.32809 -69.78361 28235 ft 512 kts 47°
2026-05-05 23:12 43.35140 -69.74641 28705 ft 511 kts 47°
2026-05-05 23:12 43.37446 -69.70952 29339 ft 508 kts 47°
2026-05-05 23:13 43.39745 -69.67272 29945 ft 504 kts 47°
2026-05-05 23:13 43.42002 -69.63657 30442 ft 502 kts 47°
2026-05-05 23:13 43.44271 -69.60019 30865 ft 502 kts 47°
2026-05-05 23:13 43.46548 -69.56367 31249 ft 501 kts 47°
2026-05-05 23:14 43.48819 -69.52718 31669 ft 501 kts 47°
2026-05-05 23:14 43.51095 -69.49057 32107 ft 500 kts 47°
2026-05-05 23:14 43.53352 -69.45419 32510 ft 499 kts 47°
2026-05-05 23:14 43.55607 -69.41778 32882 ft 499 kts 47°
2026-05-05 23:15 43.57863 -69.38132 33249 ft 499 kts 47°
2026-05-05 23:15 43.60121 -69.34478 33585 ft 499 kts 47°
2026-05-05 23:15 43.62381 -69.30817 33890 ft 501 kts 47°
2026-05-05 23:15 43.64640 -69.27154 34130 ft 502 kts 47°
2026-05-05 23:16 43.66908 -69.23470 34375 ft 503 kts 47°
2026-05-05 23:16 43.69199 -69.19745 34597 ft 505 kts 47°
2026-05-05 23:16 43.71475 -69.16039 34806 ft 507 kts 47°
2026-05-05 23:16 43.73759 -69.12316 34829 ft 508 kts 47°
2026-05-05 23:17 43.78353 -69.04811 34831 ft 509 kts 47°
2026-05-05 23:17 43.82885 -68.97398 34833 ft 507 kts 48°
2026-05-05 23:18 43.87447 -68.89905 34828 ft 507 kts 48°
2026-05-05 23:18 43.92002 -68.82405 34832 ft 507 kts 48°
2026-05-05 23:19 43.96555 -68.74888 34842 ft 508 kts 48°
2026-05-05 23:19 44.01097 -68.67371 34849 ft 509 kts 48°
2026-05-05 23:20 44.05648 -68.59820 34857 ft 509 kts 49°
2026-05-05 23:20 44.09429 -68.53530 34857 ft 509 kts 49°
2026-05-05 23:21 44.13971 -68.45955 34860 ft 511 kts 49°
2026-05-05 23:21 44.18534 -68.38328 34857 ft 511 kts 49°
2026-05-05 23:22 44.23080 -68.30707 34851 ft 511 kts 49°
2026-05-05 23:22 44.27624 -68.23072 34853 ft 510 kts 49°
2026-05-05 23:23 44.32159 -68.15430 34831 ft 510 kts 49°
2026-05-05 23:23 44.36685 -68.07780 34836 ft 510 kts 49°
2026-05-05 23:24 44.41202 -68.00126 34841 ft 510 kts 49°
2026-05-05 23:24 44.45717 -67.92456 34845 ft 510 kts 49°
2026-05-05 23:25 44.50206 -67.84809 34850 ft 510 kts 49°
2026-05-05 23:25 44.54719 -67.77100 34856 ft 510 kts 49°
2026-05-05 23:26 44.59225 -67.69381 34857 ft 511 kts 49°
2026-05-05 23:26 44.63725 -67.61653 34856 ft 510 kts 49°
2026-05-05 23:27 44.68213 -67.53925 34855 ft 511 kts 49°
2026-05-05 23:27 44.72707 -67.46162 34869 ft 510 kts 49°
2026-05-05 23:28 44.77184 -67.38408 34866 ft 509 kts 50°
2026-05-05 23:28 44.81671 -67.30615 35105 ft 512 kts 50°
2026-05-05 23:29 44.83877 -67.26771 35506 ft 510 kts 50°
2026-05-05 23:29 44.86108 -67.22879 35832 ft 509 kts 49°
2026-05-05 23:29 44.90575 -67.15080 35887 ft 511 kts 49°
2026-05-05 23:30 44.95057 -67.07266 35881 ft 512 kts 49°
2026-05-05 23:30 44.99528 -66.99446 35865 ft 512 kts 50°
2026-05-05 23:31 45.03995 -66.91603 35867 ft 512 kts 50°
2026-05-05 23:31 45.08440 -66.83775 35866 ft 513 kts 50°
2026-05-05 23:32 45.12899 -66.75897 35868 ft 513 kts 50°
2026-05-05 23:32 45.17363 -66.67988 35853 ft 512 kts 50°
2026-05-05 23:33 45.21806 -66.60095 35860 ft 511 kts 50°
2026-05-05 23:33 45.26236 -66.52205 35870 ft 511 kts 50°
2026-05-05 23:34 45.30663 -66.44298 35852 ft 511 kts 50°
2026-05-05 23:34 45.35091 -66.36368 35855 ft 512 kts 50°
2026-05-05 23:35 45.39521 -66.28411 35855 ft 512 kts 50°
2026-05-05 23:35 45.43945 -66.20440 35854 ft 512 kts 50°
2026-05-05 23:36 45.48367 -66.12452 35869 ft 514 kts 50°
2026-05-05 23:36 45.52801 -66.04419 35862 ft 515 kts 50°
2026-05-05 23:37 45.57194 -65.96437 35856 ft 515 kts 50°
2026-05-05 23:37 45.61615 -65.88380 35847 ft 515 kts 51°
2026-05-05 23:38 45.66036 -65.80298 35843 ft 513 kts 50°
2026-05-05 23:38 45.70438 -65.72232 35837 ft 513 kts 50°
2026-05-05 23:39 45.74802 -65.64215 35839 ft 513 kts 51°
2026-05-05 23:39 45.79184 -65.56138 35833 ft 513 kts 51°
2026-05-05 23:40 45.83564 -65.48044 35818 ft 513 kts 51°
2026-05-05 23:40 45.87940 -65.39933 35806 ft 513 kts 51°
2026-05-05 23:41 45.92311 -65.31809 35817 ft 513 kts 51°
2026-05-05 23:41 45.96685 -65.23653 35799 ft 515 kts 51°
2026-05-05 23:42 46.01052 -65.15489 35799 ft 516 kts 51°
2026-05-05 23:42 46.05400 -65.07336 35788 ft 516 kts 51°
2026-05-05 23:43 46.09768 -64.99121 35785 ft 516 kts 51°
2026-05-05 23:43 46.14126 -64.90901 35776 ft 516 kts 51°
2026-05-05 23:44 46.18478 -64.82669 35782 ft 516 kts 51°
2026-05-05 23:44 46.22827 -64.74416 35795 ft 516 kts 51°
2026-05-05 23:45 46.27193 -64.66106 35783 ft 518 kts 51°
2026-05-05 23:45 46.31555 -64.57783 35782 ft 519 kts 51°
2026-05-05 23:46 46.35891 -64.49484 35785 ft 518 kts 51°
2026-05-05 23:46 46.40241 -64.41129 35796 ft 520 kts 51°
2026-05-05 23:47 46.44600 -64.32737 35787 ft 521 kts 51°
2026-05-05 23:47 46.48952 -64.24332 35784 ft 521 kts 51°
2026-05-05 23:48 46.53294 -64.15919 35804 ft 521 kts 51°
2026-05-05 23:48 46.57644 -64.07460 35786 ft 521 kts 51°
2026-05-05 23:49 46.61978 -63.99016 35789 ft 520 kts 51°
2026-05-05 23:49 46.66301 -63.90566 35792 ft 520 kts 51°
2026-05-05 23:50 46.70627 -63.82081 35797 ft 521 kts 51°
2026-05-05 23:50 46.74949 -63.73580 35800 ft 522 kts 51°
2026-05-05 23:51 46.79240 -63.65117 35801 ft 522 kts 51°
2026-05-05 23:51 46.83552 -63.56583 35826 ft 522 kts 51°
2026-05-05 23:52 46.87870 -63.48009 35808 ft 524 kts 51°
2026-05-05 23:52 46.92190 -63.39408 35807 ft 524 kts 51°
2026-05-05 23:53 46.96517 -63.30766 35810 ft 524 kts 51°
2026-05-05 23:53 47.00821 -63.22140 35775 ft 526 kts 51°
2026-05-05 23:54 47.05102 -63.13528 35799 ft 523 kts 51°
2026-05-05 23:54 47.09386 -63.04895 35796 ft 523 kts 51°
2026-05-05 23:55 47.13660 -62.96253 35831 ft 523 kts 51°
2026-05-05 23:55 47.17942 -62.87563 35820 ft 525 kts 51°
2026-05-05 23:56 47.22232 -62.78834 35802 ft 525 kts 51°
2026-05-05 23:56 47.26507 -62.70104 35791 ft 525 kts 51°
2026-05-05 23:57 47.30782 -62.61349 35818 ft 526 kts 52°
2026-05-05 23:57 47.35031 -62.52618 35808 ft 527 kts 52°
2026-05-05 23:58 47.39312 -62.43794 35803 ft 527 kts 52°
2026-05-05 23:58 47.43580 -62.34965 35804 ft 527 kts 52°
2026-05-05 23:59 47.47838 -62.26123 35805 ft 526 kts 51°
2026-05-05 23:59 47.52069 -62.17306 35807 ft 524 kts 51°
2026-05-06 00:00 47.56303 -62.08476 35808 ft 524 kts 51°
2026-05-06 00:00 47.60515 -61.99659 35808 ft 524 kts 51°
2026-05-06 00:01 47.64703 -61.90859 35811 ft 524 kts 51°
2026-05-06 00:01 47.68905 -61.82001 35806 ft 524 kts 51°
2026-05-06 00:02 47.73097 -61.73133 35805 ft 524 kts 52°
2026-05-06 00:02 47.77299 -61.64219 35813 ft 525 kts 52°
2026-05-06 00:03 47.81465 -61.55349 35808 ft 526 kts 52°
2026-05-06 00:03 47.85658 -61.46393 35819 ft 526 kts 52°
2026-05-06 00:04 47.89846 -61.37418 35831 ft 526 kts 52°
2026-05-06 00:04 47.94021 -61.28432 35817 ft 526 kts 52°
2026-05-06 00:05 48.00236 -61.15015 35819 ft 526 kts 52°
2026-05-06 00:06 48.04395 -61.06005 35827 ft 525 kts 52°
2026-05-06 00:06 48.08541 -60.96993 35828 ft 526 kts 52°
2026-05-06 00:07 48.12686 -60.87947 35825 ft 526 kts 52°
2026-05-06 00:07 48.16794 -60.78953 35821 ft 527 kts 52°
2026-05-06 00:08 48.20939 -60.69848 35846 ft 526 kts 52°
2026-05-06 00:08 48.24360 -60.62310 35834 ft 525 kts 52°
2026-05-06 00:09 48.28472 -60.53222 35830 ft 525 kts 52°
2026-05-06 00:09 48.32582 -60.44107 35834 ft 525 kts 52°
2026-05-06 00:10 48.36677 -60.34998 35839 ft 524 kts 52°
2026-05-06 00:10 48.40746 -60.25901 35845 ft 522 kts 52°
2026-05-06 00:11 48.44772 -60.16879 35852 ft 521 kts 52°
2026-05-06 00:11 48.48811 -60.07808 35851 ft 520 kts 52°
2026-05-06 00:12 48.52838 -59.98735 35851 ft 520 kts 52°
2026-05-06 00:12 48.56866 -59.89620 35859 ft 520 kts 52°
2026-05-06 00:13 48.60889 -59.80485 35855 ft 521 kts 52°
2026-05-06 00:13 48.64875 -59.71404 35878 ft 521 kts 52°
2026-05-06 00:14 48.68886 -59.62239 35854 ft 522 kts 53°
2026-05-06 00:14 48.72889 -59.53057 35849 ft 522 kts 53°
2026-05-06 00:15 48.76900 -59.43823 35855 ft 522 kts 53°
2026-05-06 00:15 48.80896 -59.34595 35869 ft 523 kts 53°
2026-05-06 00:16 48.84893 -59.25332 35840 ft 523 kts 53°
2026-05-06 00:16 48.88860 -59.16095 35848 ft 521 kts 53°
2026-05-06 00:17 48.92802 -59.06903 35850 ft 521 kts 53°
2026-05-06 00:17 48.96748 -58.97669 35864 ft 521 kts 53°
2026-05-06 00:18 49.00677 -58.88439 35858 ft 522 kts 53°
2026-05-06 00:18 49.04625 -58.79130 35854 ft 522 kts 53°
2026-05-06 00:19 49.08570 -58.69797 35849 ft 522 kts 53°
2026-05-06 00:19 49.12496 -58.60475 35856 ft 522 kts 53°
2026-05-06 00:20 49.16421 -58.51124 35850 ft 522 kts 53°
2026-05-06 00:20 49.20345 -58.41743 35850 ft 522 kts 53°
2026-05-06 00:21 49.24234 -58.32413 35861 ft 522 kts 53°
2026-05-06 00:21 49.28135 -58.23016 35854 ft 522 kts 53°
2026-05-06 00:22 49.32023 -58.13616 35849 ft 518 kts 53°
2026-05-06 00:22 49.35876 -58.04274 35860 ft 517 kts 53°
2026-05-06 00:23 49.39721 -57.94923 35874 ft 517 kts 53°
2026-05-06 00:23 49.43537 -57.85604 35864 ft 517 kts 54°
2026-05-06 00:24 49.47363 -57.76230 35874 ft 517 kts 54°
2026-05-06 00:24 49.51188 -57.66820 35873 ft 518 kts 54°
2026-05-06 00:25 49.55003 -57.57405 35889 ft 517 kts 54°
2026-05-06 00:25 49.58807 -57.47979 35874 ft 517 kts 54°
2026-05-06 00:26 49.62604 -57.38543 35863 ft 517 kts 54°
2026-05-06 00:26 49.66397 -57.29081 35871 ft 517 kts 54°
2026-05-06 00:27 49.70183 -57.19599 35886 ft 518 kts 54°
2026-05-06 00:27 49.73964 -57.10095 35876 ft 518 kts 54°
2026-05-06 00:28 49.77706 -57.00649 35867 ft 517 kts 54°
2026-05-06 00:28 49.81463 -56.91147 35859 ft 517 kts 54°
2026-05-06 00:29 49.85213 -56.81622 35884 ft 517 kts 53°
2026-05-06 00:29 49.88954 -56.72082 35875 ft 517 kts 54°
2026-05-06 00:30 49.92698 -56.62509 35872 ft 518 kts 54°
2026-05-06 00:30 49.96431 -56.52923 35866 ft 518 kts 54°
2026-05-06 00:31 50.00121 -56.43408 35890 ft 517 kts 54°
2026-05-06 00:31 50.03837 -56.33794 35879 ft 517 kts 54°
2026-05-06 00:32 50.07542 -56.24177 35871 ft 517 kts 54°
2026-05-06 00:32 50.11241 -56.14539 35872 ft 517 kts 54°
2026-05-06 00:33 50.14927 -56.04892 35893 ft 517 kts 54°
2026-05-06 00:33 50.18603 -55.95241 35877 ft 517 kts 54°
2026-05-06 00:34 50.22243 -55.85647 35878 ft 515 kts 54°
2026-05-06 00:34 50.25891 -55.76000 35874 ft 514 kts 54°
2026-05-06 00:35 50.29522 -55.66363 35882 ft 513 kts 54°
2026-05-06 00:35 50.33133 -55.56739 35887 ft 512 kts 54°
2026-05-06 00:36 50.36733 -55.47108 35887 ft 512 kts 54°
2026-05-06 00:36 50.40331 -55.37448 35879 ft 512 kts 54°
2026-05-06 00:37 50.43917 -55.27791 35897 ft 512 kts 55°
2026-05-06 00:37 50.47496 -55.18107 35890 ft 512 kts 55°
2026-05-06 00:38 50.51044 -55.08469 35893 ft 512 kts 55°
2026-05-06 00:38 50.54605 -54.98764 35900 ft 512 kts 55°
2026-05-06 00:39 50.58151 -54.89063 35900 ft 512 kts 55°
2026-05-06 00:39 50.61700 -54.79316 35902 ft 512 kts 55°
2026-05-06 00:40 50.65242 -54.69552 35904 ft 512 kts 55°
2026-05-06 00:40 50.68771 -54.59784 35903 ft 512 kts 56°
2026-05-06 00:41 50.72295 -54.49997 35917 ft 511 kts 56°
2026-05-06 00:41 50.75804 -54.40211 35909 ft 511 kts 56°
2026-05-06 00:42 50.79284 -54.30468 35909 ft 511 kts 56°
2026-05-06 00:42 50.82776 -54.20657 35909 ft 511 kts 56°
2026-05-06 00:43 50.86256 -54.10842 35921 ft 511 kts 56°
2026-05-06 00:43 50.89730 -54.01003 35916 ft 511 kts 56°
2026-05-06 00:44 50.93188 -53.91168 35920 ft 511 kts 56°
2026-05-06 00:44 50.96648 -53.81294 35919 ft 511 kts 56°
2026-05-06 00:45 51.00096 -53.71417 35934 ft 511 kts 57°
2026-05-06 00:45 51.03555 -53.61472 36294 ft 513 kts 57°
2026-05-06 00:45 51.05254 -53.56570 36688 ft 510 kts 57°
2026-05-06 00:46 51.06986 -53.51558 36933 ft 509 kts 57°
2026-05-06 00:46 51.10370 -53.41728 36917 ft 509 kts 57°
2026-05-06 00:47 51.13767 -53.31822 36943 ft 509 kts 58°
2026-05-06 00:47 51.17083 -53.21814 36930 ft 512 kts 61°
2026-05-06 00:48 51.20010 -53.11422 36929 ft 513 kts 63°
2026-05-06 00:48 51.22844 -53.01028 36928 ft 513 kts 63°
2026-05-06 00:49 51.25694 -52.90551 36930 ft 513 kts 63°
2026-05-06 00:49 51.28563 -52.79990 36937 ft 515 kts 63°
2026-05-06 00:50 51.31398 -52.69515 36928 ft 515 kts 63°
2026-05-06 00:50 51.34238 -52.58977 36931 ft 515 kts 63°
2026-05-06 00:51 51.37056 -52.48468 36934 ft 515 kts 63°
2026-05-06 00:51 51.39880 -52.37878 36944 ft 515 kts 63°
2026-05-06 00:52 51.42698 -52.27281 36940 ft 515 kts 63°
2026-05-06 00:52 51.45502 -52.16689 36938 ft 515 kts 63°
2026-05-06 00:53 51.48299 -52.06072 36936 ft 516 kts 63°
2026-05-06 00:53 51.51066 -51.95512 36950 ft 516 kts 63°
2026-05-06 00:54 51.53840 -51.84881 36940 ft 515 kts 64°
2026-05-06 00:54 51.56608 -51.74222 36934 ft 516 kts 64°
2026-05-06 00:55 51.59366 -51.63549 36927 ft 516 kts 64°
2026-05-06 00:55 51.61647 -51.54687 36934 ft 516 kts 64°
2026-05-06 00:56 51.64849 -51.42193 36923 ft 514 kts 64°
2026-05-06 00:56 51.67545 -51.31616 36931 ft 511 kts 64°
2026-05-06 00:57 51.69802 -51.22711 36943 ft 511 kts 64°
2026-05-06 00:57 51.72490 -51.12062 36931 ft 511 kts 65°
2026-05-06 00:58 51.75151 -51.01486 36942 ft 512 kts 65°
2026-05-06 00:58 51.77821 -50.90814 36939 ft 512 kts 65°
2026-05-06 00:59 51.80481 -50.80126 36940 ft 512 kts 65°
2026-05-06 00:59 51.83137 -50.69401 36938 ft 512 kts 65°
2026-05-06 01:00 51.85784 -50.58660 36939 ft 512 kts 65°
2026-05-06 01:00 51.88418 -50.47923 36944 ft 512 kts 65°
2026-05-06 01:01 51.91044 -50.37165 36943 ft 512 kts 65°
2026-05-06 01:01 51.93644 -50.26457 36938 ft 513 kts 66°
2026-05-06 01:02 51.96251 -50.15659 36940 ft 514 kts 66°
2026-05-06 01:02 51.98848 -50.04845 36955 ft 514 kts 66°
2026-05-06 01:03 52.01485 -49.94032 36947 ft 514 kts 65°
2026-05-06 01:03 52.04215 -49.83278 36948 ft 514 kts 65°
2026-05-06 01:04 52.06911 -49.72594 36944 ft 514 kts 65°
2026-05-06 01:04 52.09606 -49.61814 36966 ft 514 kts 65°
2026-05-06 01:05 52.12291 -49.51012 36943 ft 513 kts 65°
2026-05-06 01:05 52.14955 -49.40212 36944 ft 513 kts 66°
2026-05-06 01:06 52.17807 -49.28596 36950 ft 513 kts 66°
2026-05-06 01:06 52.20436 -49.17826 36948 ft 513 kts 66°
2026-05-06 01:07 52.23074 -49.07000 36951 ft 513 kts 66°
2026-05-06 01:07 52.25696 -48.96156 36950 ft 513 kts 66°
2026-05-06 01:08 52.28309 -48.85291 36948 ft 513 kts 66°
2026-05-06 01:08 52.30912 -48.74416 36955 ft 513 kts 66°
2026-05-06 01:09 52.33485 -48.63626 36959 ft 512 kts 67°
2026-05-06 01:09 52.36070 -48.52725 36951 ft 512 kts 67°
2026-05-06 01:10 52.38638 -48.41832 36953 ft 512 kts 67°
2026-05-06 01:10 52.41198 -48.30921 36950 ft 513 kts 67°
2026-05-06 01:11 52.43755 -48.19972 36972 ft 513 kts 68°
2026-05-06 01:11 52.46296 -48.09050 36959 ft 512 kts 68°
2026-05-06 01:12 52.48806 -47.98179 36947 ft 512 kts 68°
2026-05-06 01:12 52.51327 -47.87211 36949 ft 512 kts 68°
2026-05-06 01:13 52.53835 -47.76240 36959 ft 512 kts 68°
2026-05-06 01:13 52.56338 -47.65249 36963 ft 512 kts 68°
2026-05-06 01:14 52.60066 -47.48758 36958 ft 512 kts 68°
2026-05-06 01:14 52.62539 -47.37747 36958 ft 512 kts 69°
2026-05-06 01:15 52.65001 -47.26729 36963 ft 512 kts 69°
2026-05-06 01:15 52.67439 -47.15777 36970 ft 511 kts 69°
2026-05-06 01:16 52.69875 -47.04758 36967 ft 510 kts 69°
2026-05-06 01:16 52.72298 -46.93737 36969 ft 510 kts 69°
2026-05-06 01:17 52.74716 -46.82679 36964 ft 511 kts 69°
2026-05-06 01:17 52.77121 -46.71629 36980 ft 511 kts 70°
2026-05-06 01:18 52.79520 -46.60564 36975 ft 510 kts 70°
2026-05-06 01:18 52.81896 -46.49516 36975 ft 510 kts 70°
2026-05-06 01:19 52.84268 -46.38433 36975 ft 510 kts 70°
2026-05-06 01:19 52.86627 -46.27357 36974 ft 510 kts 70°
2026-05-06 01:20 52.88962 -46.16342 36983 ft 509 kts 70°
2026-05-06 01:20 52.91296 -46.05260 36980 ft 508 kts 70°
2026-05-06 01:21 52.93619 -45.94167 36982 ft 508 kts 71°
2026-05-06 01:21 52.95933 -45.83064 36988 ft 508 kts 71°
2026-05-06 01:22 52.98237 -45.71948 36988 ft 508 kts 71°
2026-05-06 01:22 53.00525 -45.60848 36992 ft 509 kts 71°
2026-05-06 01:23 53.02809 -45.49703 36989 ft 509 kts 71°
2026-05-06 01:23 53.04700 -45.40426 36999 ft 509 kts 71°
2026-05-06 01:24 53.06967 -45.29249 36999 ft 509 kts 71°
2026-05-06 01:24 53.09587 -45.16260 36994 ft 508 kts 71°
2026-05-06 01:25 53.11463 -45.06897 37002 ft 508 kts 71°
2026-05-06 01:25 53.13676 -44.95791 37005 ft 508 kts 72°
2026-05-06 01:26 53.15891 -44.84615 37009 ft 508 kts 72°
2026-05-06 01:26 53.18099 -44.73419 37014 ft 508 kts 72°
2026-05-06 01:27 53.20295 -44.62224 37015 ft 506 kts 72°
2026-05-06 01:27 53.22472 -44.51045 37012 ft 506 kts 72°
2026-05-06 01:28 53.24636 -44.39864 37012 ft 505 kts 72°
2026-05-06 01:28 53.26793 -44.28661 37019 ft 505 kts 72°
2026-05-06 01:29 53.28938 -44.17455 37026 ft 505 kts 73°
2026-05-06 01:29 53.31073 -44.06239 37026 ft 505 kts 73°
2026-05-06 01:30 53.33194 -43.95018 37027 ft 505 kts 73°
2026-05-06 01:30 53.35304 -43.83790 37026 ft 505 kts 73°
2026-05-06 01:31 53.37391 -43.72620 37028 ft 505 kts 73°
2026-05-06 01:31 53.39488 -43.61346 37027 ft 505 kts 73°
2026-05-06 01:32 53.41564 -43.50099 37030 ft 504 kts 73°
2026-05-06 01:32 53.43628 -43.38845 37035 ft 504 kts 73°
2026-05-06 01:33 53.45684 -43.27572 37037 ft 504 kts 73°
2026-05-06 01:33 53.47728 -43.16297 37042 ft 504 kts 74°
2026-05-06 01:34 53.49761 -43.05019 37042 ft 503 kts 74°
2026-05-06 01:34 53.51781 -42.93738 37048 ft 503 kts 74°
2026-05-06 01:35 53.53784 -42.82471 37050 ft 503 kts 74°
2026-05-06 01:35 53.55783 -42.71167 37054 ft 503 kts 74°
2026-05-06 01:36 53.57757 -42.59944 37054 ft 502 kts 75°
2026-05-06 01:36 53.59730 -42.48643 37057 ft 501 kts 75°
2026-05-06 01:37 53.61694 -42.37324 37061 ft 501 kts 75°
2026-05-06 01:37 53.63641 -42.26027 37065 ft 501 kts 75°
2026-05-06 01:38 53.65579 -42.14711 37067 ft 501 kts 75°
2026-05-06 01:38 53.67495 -42.03463 37066 ft 500 kts 75°
2026-05-06 01:39 53.69418 -41.92090 37062 ft 500 kts 75°
2026-05-06 01:39 53.71306 -41.80849 37073 ft 500 kts 75°
2026-05-06 01:40 53.73199 -41.69509 37078 ft 501 kts 75°
2026-05-06 01:40 53.75080 -41.58167 37074 ft 501 kts 75°
2026-05-06 01:41 53.76954 -41.46807 37084 ft 500 kts 76°
2026-05-06 01:41 53.78809 -41.35465 37092 ft 500 kts 76°
2026-05-06 01:42 53.80652 -41.24120 37094 ft 500 kts 76°
2026-05-06 01:42 53.82487 -41.12753 37095 ft 500 kts 76°
2026-05-06 01:43 53.84311 -41.01386 37096 ft 499 kts 76°
2026-05-06 01:43 53.86110 -40.90095 37099 ft 498 kts 76°
2026-05-06 01:44 53.87907 -40.78725 37105 ft 498 kts 76°
2026-05-06 01:44 53.89694 -40.67353 37106 ft 498 kts 76°
2026-05-06 01:45 53.91471 -40.55958 37108 ft 499 kts 77°
2026-05-06 01:45 53.93238 -40.44552 37110 ft 499 kts 77°
2026-05-06 01:46 53.94994 -40.33129 37120 ft 499 kts 77°
2026-05-06 01:46 53.96740 -40.21680 37119 ft 499 kts 77°
2026-05-06 01:47 53.98471 -40.10238 37117 ft 499 kts 77°
2026-05-06 01:47 54.00189 -39.98798 37120 ft 499 kts 77°
2026-05-06 01:48 54.01859 -39.87349 37120 ft 498 kts 78°
2026-05-06 01:48 54.03489 -39.75948 37124 ft 498 kts 78°
2026-05-06 01:49 54.05116 -39.64471 37127 ft 498 kts 78°
2026-05-06 01:49 54.06852 -39.52136 37130 ft 498 kts 78°
2026-05-06 01:50 54.08195 -39.42517 37131 ft 498 kts 78°
2026-05-06 01:50 54.09779 -39.31110 37128 ft 495 kts 78°
2026-05-06 01:51 54.11354 -39.19665 37136 ft 495 kts 78°
2026-05-06 01:51 54.12923 -39.08183 37138 ft 495 kts 78°
2026-05-06 01:52 54.14480 -38.96700 37139 ft 495 kts 78°
2026-05-06 01:52 54.16015 -38.85296 37130 ft 495 kts 79°
2026-05-06 01:53 54.17542 -38.73867 37136 ft 491 kts 79°
2026-05-06 01:53 54.19051 -38.62470 37137 ft 491 kts 79°
2026-05-06 01:54 54.20548 -38.51069 37138 ft 491 kts 79°
2026-05-06 01:54 54.22036 -38.39650 37141 ft 491 kts 79°
2026-05-06 01:55 54.23513 -38.28245 37138 ft 490 kts 79°
2026-05-06 01:55 54.24969 -38.16905 37145 ft 489 kts 79°
2026-05-06 01:56 54.26420 -38.05491 37143 ft 489 kts 79°
2026-05-06 01:56 54.27862 -37.94059 37137 ft 490 kts 79°
2026-05-06 01:57 54.29286 -37.82686 37140 ft 490 kts 80°
2026-05-06 01:57 54.30709 -37.71239 37143 ft 489 kts 80°
2026-05-06 01:58 54.32116 -37.59814 37142 ft 489 kts 80°
2026-05-06 01:58 54.33509 -37.48400 37144 ft 489 kts 80°
2026-05-06 01:59 54.34890 -37.36993 37145 ft 489 kts 80°
2026-05-06 01:59 54.36265 -37.25537 37144 ft 489 kts 81°
2026-05-06 02:00 54.37623 -37.14153 37142 ft 488 kts 81°
2026-05-06 02:00 54.38972 -37.02716 37142 ft 487 kts 81°
2026-05-06 02:01 54.40302 -36.91336 37142 ft 486 kts 81°
2026-05-06 02:01 54.41622 -36.79957 37139 ft 486 kts 81°
2026-05-06 02:02 54.42939 -36.68498 37130 ft 487 kts 81°
2026-05-06 02:02 54.44236 -36.57118 37128 ft 486 kts 81°
2026-05-06 02:03 54.45531 -36.45657 37133 ft 485 kts 81°
2026-05-06 02:03 54.46805 -36.34274 37140 ft 485 kts 82°
2026-05-06 02:04 54.48069 -36.22865 37134 ft 485 kts 82°
2026-05-06 02:04 54.49327 -36.11426 37137 ft 485 kts 82°
2026-05-06 02:05 54.50568 -36.00039 37124 ft 484 kts 82°
2026-05-06 02:05 54.51798 -35.88633 37126 ft 484 kts 82°
2026-05-06 02:06 54.53017 -35.77219 37126 ft 484 kts 82°
2026-05-06 02:06 54.54230 -35.65761 37125 ft 484 kts 82°
2026-05-06 02:07 54.55425 -35.54374 37123 ft 484 kts 82°
2026-05-06 02:07 54.56615 -35.42904 37113 ft 483 kts 82°
2026-05-06 02:08 54.57782 -35.31571 37117 ft 484 kts 82°
2026-05-06 02:08 54.58954 -35.20061 37115 ft 485 kts 82°
2026-05-06 02:09 54.60110 -35.08604 37116 ft 485 kts 83°
2026-05-06 02:09 54.61254 -34.97147 37122 ft 485 kts 83°
2026-05-06 02:10 54.62390 -34.85658 37119 ft 484 kts 83°
2026-05-06 02:10 54.63511 -34.74200 37113 ft 484 kts 83°
2026-05-06 02:11 54.64628 -34.62672 37112 ft 485 kts 83°
2026-05-06 02:11 54.65726 -34.51219 37108 ft 484 kts 83°
2026-05-06 02:12 54.66815 -34.39731 37112 ft 484 kts 83°
2026-05-06 02:12 54.67891 -34.28258 37103 ft 483 kts 83°
2026-05-06 02:13 54.68960 -34.16751 37107 ft 483 kts 83°
2026-05-06 02:13 54.70018 -34.05246 37119 ft 483 kts 83°
2026-05-06 02:14 54.71059 -33.93794 37111 ft 483 kts 83°
2026-05-06 02:14 54.72092 -33.82306 37103 ft 483 kts 83°
2026-05-06 02:15 54.73117 -33.70769 37105 ft 481 kts 84°
2026-05-06 02:15 54.74119 -33.59377 37113 ft 481 kts 84°
2026-05-06 02:16 54.75115 -33.47916 37112 ft 481 kts 84°
2026-05-06 02:16 54.76099 -33.36469 37118 ft 481 kts 84°
2026-05-06 02:17 54.77080 -33.24923 37116 ft 480 kts 84°
2026-05-06 02:17 54.78037 -33.13539 37111 ft 478 kts 84°
2026-05-06 02:18 54.78983 -33.02148 37115 ft 477 kts 84°
2026-05-06 02:18 54.79921 -32.90693 37124 ft 477 kts 84°
2026-05-06 02:19 54.80845 -32.79287 37132 ft 477 kts 84°
2026-05-06 02:19 54.81753 -32.67948 37130 ft 477 kts 84°
2026-05-06 02:20 54.83106 -32.50778 37131 ft 476 kts 84°
2026-05-06 02:21 54.83988 -32.39432 37141 ft 476 kts 85°
2026-05-06 02:21 54.84866 -32.27971 37141 ft 476 kts 85°
2026-05-06 02:22 54.85728 -32.16596 37142 ft 476 kts 85°
2026-05-06 02:22 54.86582 -32.05167 37145 ft 476 kts 85°
2026-05-06 02:23 54.87413 -31.93833 37145 ft 475 kts 84°
2026-05-06 02:23 54.88247 -31.82410 37151 ft 475 kts 85°
2026-05-06 02:24 54.89067 -31.71009 37156 ft 475 kts 85°
2026-05-06 02:24 54.89873 -31.59645 37155 ft 475 kts 85°
2026-05-06 02:25 54.90672 -31.48208 37164 ft 475 kts 85°
2026-05-06 02:25 54.91453 -31.36836 37159 ft 474 kts 85°
2026-05-06 02:26 54.92227 -31.25468 37155 ft 474 kts 85°
2026-05-06 02:26 54.92991 -31.14080 37161 ft 475 kts 85°
2026-05-06 02:27 54.93748 -31.02620 37168 ft 475 kts 85°
2026-05-06 02:27 54.94490 -30.91212 37168 ft 475 kts 85°
2026-05-06 02:28 54.95220 -30.79781 37170 ft 475 kts 85°
2026-05-06 02:28 54.95946 -30.68288 37175 ft 476 kts 85°
2026-05-06 02:29 54.96658 -30.56839 37182 ft 476 kts 85°
2026-05-06 02:29 54.97360 -30.45364 37179 ft 476 kts 85°
2026-05-06 02:30 54.98051 -30.33869 37182 ft 476 kts 85°
2026-05-06 02:30 54.98722 -30.22426 37178 ft 477 kts 85°
2026-05-06 02:31 54.99393 -30.10857 37184 ft 478 kts 85°
2026-05-06 02:31 55.00050 -29.99367 37183 ft 478 kts 85°
2026-05-06 02:32 55.00562 -29.87785 37187 ft 478 kts 87°
2026-05-06 02:32 55.01007 -29.76241 37185 ft 478 kts 87°
2026-05-06 02:33 55.01445 -29.64625 37187 ft 478 kts 86°
2026-05-06 02:33 55.01587 -29.60789 37189 ft 479 kts 86°
2026-05-06 02:34 55.02303 -29.41518 37189 ft 479 kts 86°
2026-05-06 02:34 55.02720 -29.29910 37191 ft 479 kts 86°
2026-05-06 02:35 55.03060 -29.20188 37192 ft 479 kts 86°
2026-05-06 02:35 55.03518 -29.06703 37192 ft 479 kts 86°
2026-05-06 02:36 55.03840 -28.96958 37193 ft 479 kts 86°
2026-05-06 02:36 55.04213 -28.85330 37193 ft 479 kts 87°
2026-05-06 02:37 55.04575 -28.73714 37192 ft 479 kts 87°
2026-05-06 02:37 55.04926 -28.62081 37187 ft 479 kts 87°
2026-05-06 02:38 55.05266 -28.50477 37194 ft 479 kts 87°
2026-05-06 02:38 55.05590 -28.38864 37187 ft 480 kts 87°
2026-05-06 02:39 55.05910 -28.27222 37186 ft 480 kts 87°
2026-05-06 02:39 55.06219 -28.15546 37187 ft 480 kts 87°
2026-05-06 02:40 55.06516 -28.03880 37192 ft 480 kts 87°
2026-05-06 02:40 55.06801 -27.92259 37187 ft 480 kts 87°
2026-05-06 02:41 55.07073 -27.80574 37188 ft 481 kts 87°
2026-05-06 02:41 55.07337 -27.68901 37182 ft 481 kts 87°
2026-05-06 02:42 55.07590 -27.57182 37186 ft 481 kts 87°
2026-05-06 02:42 55.07831 -27.45541 37182 ft 481 kts 87°
2026-05-06 02:43 55.08059 -27.33895 37177 ft 481 kts 87°
2026-05-06 02:43 55.08277 -27.22126 37187 ft 482 kts 87°
2026-05-06 02:44 55.08486 -27.10411 37180 ft 483 kts 87°
2026-05-06 02:44 55.08683 -26.98742 37181 ft 483 kts 88°
2026-05-06 02:45 55.08869 -26.87002 37182 ft 483 kts 88°
2026-05-06 02:45 55.09043 -26.75251 37176 ft 483 kts 88°
2026-05-06 02:46 55.09205 -26.63477 37186 ft 483 kts 88°
2026-05-06 02:46 55.09356 -26.51725 37177 ft 484 kts 88°
2026-05-06 02:47 55.09498 -26.39983 37175 ft 484 kts 88°
2026-05-06 02:47 55.09628 -26.28249 37170 ft 484 kts 88°
2026-05-06 02:48 55.09747 -26.16422 37172 ft 484 kts 88°
2026-05-06 02:48 55.09852 -26.04711 37169 ft 484 kts 88°
2026-05-06 02:49 55.09945 -25.92905 37171 ft 485 kts 88°
2026-05-06 02:49 55.10031 -25.81123 37169 ft 485 kts 88°
2026-05-06 02:50 55.10105 -25.69370 37168 ft 485 kts 88°
2026-05-06 02:50 55.10167 -25.57547 37168 ft 485 kts 88°
2026-05-06 02:51 55.10216 -25.45775 37187 ft 485 kts 88°
2026-05-06 02:51 55.10251 -25.33957 37165 ft 486 kts 88°
2026-05-06 02:52 55.10281 -25.22159 37169 ft 487 kts 88°
2026-05-06 02:52 55.10297 -25.10333 37158 ft 487 kts 88°
2026-05-06 02:53 55.10302 -24.98504 37160 ft 487 kts 88°
2026-05-06 02:53 55.10295 -24.86641 37180 ft 487 kts 88°
2026-05-06 02:54 55.10273 -24.74825 37156 ft 488 kts 88°
2026-05-06 02:54 55.10245 -24.62931 37157 ft 488 kts 88°
2026-05-06 02:55 55.10204 -24.51053 37154 ft 488 kts 88°
2026-05-06 02:55 55.10152 -24.39244 37155 ft 488 kts 88°
2026-05-06 02:56 55.10087 -24.27350 37155 ft 488 kts 88°
2026-05-06 02:56 55.10007 -24.15482 37158 ft 488 kts 88°
2026-05-06 02:57 55.09921 -24.03621 37154 ft 488 kts 88°
2026-05-06 02:57 55.09823 -23.91807 37153 ft 488 kts 88°
2026-05-06 02:58 55.09712 -23.79855 37149 ft 488 kts 89°
2026-05-06 02:58 55.09590 -23.68042 37151 ft 489 kts 89°
2026-05-06 02:59 55.09452 -23.56089 37150 ft 489 kts 88°
2026-05-06 02:59 55.09308 -23.44222 37148 ft 489 kts 89°
2026-05-06 03:00 55.09152 -23.32411 37149 ft 489 kts 89°
2026-05-06 03:00 55.08983 -23.20488 37153 ft 489 kts 89°
2026-05-06 03:01 55.08803 -23.08632 37145 ft 489 kts 89°
2026-05-06 03:01 55.08612 -22.96776 37139 ft 489 kts 89°
2026-05-06 03:02 55.08407 -22.84859 37143 ft 489 kts 89°
2026-05-06 03:02 55.08193 -22.73020 37134 ft 489 kts 89°
2026-05-06 03:03 55.07965 -22.61097 37143 ft 489 kts 89°
2026-05-06 03:03 55.07728 -22.49282 37143 ft 489 kts 89°
2026-05-06 03:04 55.07475 -22.37386 37143 ft 490 kts 89°
2026-05-06 03:04 55.07214 -22.25508 37138 ft 490 kts 89°
2026-05-06 03:05 55.06941 -22.13611 37122 ft 490 kts 89°
2026-05-06 03:05 55.06657 -22.01743 37137 ft 490 kts 89°
2026-05-06 03:06 55.06360 -21.89833 37134 ft 490 kts 90°
2026-05-06 03:06 55.06050 -21.77921 37145 ft 490 kts 90°
2026-05-06 03:07 55.05731 -21.66052 37135 ft 490 kts 90°
2026-05-06 03:07 55.05400 -21.54171 37132 ft 491 kts 90°
2026-05-06 03:08 55.05057 -21.42286 37134 ft 491 kts 90°
2026-05-06 03:08 55.04701 -21.30373 37135 ft 491 kts 90°
2026-05-06 03:09 55.04332 -21.18436 37143 ft 491 kts 90°
2026-05-06 03:09 55.03952 -21.06517 37133 ft 492 kts 90°
2026-05-06 03:10 55.03563 -20.94656 37128 ft 492 kts 90°
2026-05-06 03:10 55.03160 -20.82737 37127 ft 491 kts 90°
2026-05-06 03:11 55.02743 -20.70784 37131 ft 491 kts 90°
2026-05-06 03:11 55.02318 -20.58941 37144 ft 491 kts 90°
2026-05-06 03:12 55.01878 -20.47014 37135 ft 492 kts 90°
2026-05-06 03:12 55.01430 -20.35175 37131 ft 492 kts 90°
2026-05-06 03:13 55.00963 -20.23218 37133 ft 492 kts 91°
2026-05-06 03:13 55.00484 -20.11318 37124 ft 492 kts 91°
2026-05-06 03:14 54.99960 -19.99462 37132 ft 493 kts 93°
2026-05-06 03:14 54.99073 -19.87549 37129 ft 494 kts 95°
2026-05-06 03:15 54.98122 -19.75662 37128 ft 495 kts 95°
2026-05-06 03:15 54.97158 -19.63791 37125 ft 494 kts 95°
2026-05-06 03:16 54.96183 -19.51914 37126 ft 494 kts 95°
2026-05-06 03:16 54.95203 -19.40113 37146 ft 494 kts 95°
2026-05-06 03:17 54.94208 -19.28262 37129 ft 495 kts 95°
2026-05-06 03:17 54.93203 -19.16433 37126 ft 495 kts 95°
2026-05-06 03:18 54.92184 -19.04594 37129 ft 495 kts 95°
2026-05-06 03:18 54.91153 -18.92744 37125 ft 495 kts 95°
2026-05-06 03:19 54.90109 -18.80890 37148 ft 495 kts 95°
2026-05-06 03:19 54.89052 -18.69018 37128 ft 496 kts 96°
2026-05-06 03:20 54.87445 -18.51243 37124 ft 496 kts 96°
2026-05-06 03:20 54.86363 -18.39431 37128 ft 496 kts 96°
2026-05-06 03:21 54.85266 -18.27594 37119 ft 495 kts 96°
2026-05-06 03:21 54.84160 -18.15785 37130 ft 496 kts 96°
2026-05-06 03:22 54.83038 -18.03931 37119 ft 496 kts 96°
2026-05-06 03:22 54.81909 -17.92139 37119 ft 496 kts 96°
2026-05-06 03:23 54.80764 -17.80301 37120 ft 496 kts 96°
2026-05-06 03:23 54.79798 -17.70413 37119 ft 496 kts 96°
2026-05-06 03:24 54.78632 -17.58586 37138 ft 496 kts 96°
2026-05-06 03:24 54.77265 -17.44884 37119 ft 497 kts 97°
2026-05-06 03:25 54.76269 -17.35008 37116 ft 497 kts 97°
2026-05-06 03:25 54.75069 -17.23208 37116 ft 497 kts 97°
2026-05-06 03:26 54.73857 -17.11417 37116 ft 497 kts 97°
2026-05-06 03:26 54.72639 -16.99676 37114 ft 497 kts 97°
2026-05-06 03:27 54.71403 -16.87888 37115 ft 497 kts 97°
2026-05-06 03:27 54.70156 -16.76109 37114 ft 497 kts 97°
2026-05-06 03:28 54.68893 -16.64293 37114 ft 497 kts 97°
2026-05-06 03:28 54.67621 -16.52506 37114 ft 497 kts 97°
2026-05-06 03:29 54.66342 -16.40769 37108 ft 497 kts 97°
2026-05-06 03:29 54.65053 -16.29060 37117 ft 497 kts 97°
2026-05-06 03:30 54.63751 -16.17341 37117 ft 497 kts 97°
2026-05-06 03:30 54.62429 -16.05546 37111 ft 497 kts 98°
2026-05-06 03:31 54.61106 -15.93854 37112 ft 497 kts 98°
2026-05-06 03:31 54.59768 -15.82136 37111 ft 497 kts 98°
2026-05-06 03:32 54.58425 -15.70480 37118 ft 498 kts 98°
2026-05-06 03:32 54.57056 -15.58726 37109 ft 498 kts 98°
2026-05-06 03:33 54.55686 -15.47064 37108 ft 498 kts 98°
2026-05-06 03:33 54.54293 -15.35323 37108 ft 498 kts 98°
2026-05-06 03:34 54.52892 -15.23652 37107 ft 497 kts 98°
2026-05-06 03:34 54.51492 -15.12055 37115 ft 497 kts 98°
2026-05-06 03:35 54.50392 -15.00270 37106 ft 494 kts 92°
2026-05-06 03:35 54.50036 -14.88567 37105 ft 491 kts 86°
2026-05-06 03:36 54.50075 -14.76769 37102 ft 491 kts 86°
2026-05-06 03:36 54.50114 -14.65053 37103 ft 491 kts 86°
2026-05-06 03:37 54.50132 -14.53236 37114 ft 491 kts 86°
2026-05-06 03:37 54.50130 -14.41495 37103 ft 492 kts 86°
2026-05-06 03:38 54.50113 -14.29715 37100 ft 492 kts 87°
2026-05-06 03:38 54.50084 -14.17912 37087 ft 492 kts 87°
2026-05-06 03:39 54.50043 -14.06133 37096 ft 492 kts 88°
2026-05-06 03:39 54.49609 -13.94372 37090 ft 495 kts 94°
2026-05-06 03:40 54.48696 -13.82578 37094 ft 496 kts 95°
2026-05-06 03:40 54.47748 -13.70849 37101 ft 496 kts 95°
2026-05-06 03:41 54.46792 -13.59106 37088 ft 495 kts 95°
2026-05-06 03:41 54.45826 -13.47367 37106 ft 495 kts 96°
2026-05-06 03:42 54.44853 -13.35624 37107 ft 496 kts 96°
2026-05-06 03:42 54.43869 -13.23943 37102 ft 496 kts 96°
2026-05-06 03:43 54.42866 -13.12158 37096 ft 496 kts 96°
2026-05-06 03:43 54.41857 -13.00443 37093 ft 496 kts 96°
2026-05-06 03:44 54.40843 -12.88778 37111 ft 496 kts 97°
2026-05-06 03:44 54.39810 -12.77024 37101 ft 497 kts 97°
2026-05-06 03:45 54.38766 -12.65331 37095 ft 497 kts 97°
2026-05-06 03:45 54.37706 -12.53571 37094 ft 497 kts 97°
2026-05-06 03:46 54.36635 -12.41824 37081 ft 497 kts 97°
2026-05-06 03:46 54.35558 -12.30092 37100 ft 498 kts 98°
2026-05-06 03:47 54.34459 -12.18297 37090 ft 499 kts 98°
2026-05-06 03:47 54.33352 -12.06574 37092 ft 499 kts 98°
2026-05-06 03:48 54.32231 -11.94809 37090 ft 499 kts 98°
2026-05-06 03:48 54.31102 -11.83077 37090 ft 499 kts 98°
2026-05-06 03:49 54.29963 -11.71340 37094 ft 499 kts 98°
2026-05-06 03:49 54.28811 -11.59623 37090 ft 499 kts 98°
2026-05-06 03:50 54.27641 -11.47849 37089 ft 499 kts 98°
2026-05-06 03:50 54.26468 -11.36165 37090 ft 500 kts 99°
2026-05-06 03:51 54.25286 -11.24503 37090 ft 500 kts 99°
2026-05-06 03:51 54.24078 -11.12711 37089 ft 500 kts 99°
2026-05-06 03:52 54.22875 -11.01064 37082 ft 500 kts 99°
2026-05-06 03:52 54.21651 -10.89353 37084 ft 500 kts 99°
2026-05-06 03:53 54.20409 -10.77578 37085 ft 500 kts 99°
2026-05-06 03:53 54.19164 -10.65888 37097 ft 500 kts 99°
2026-05-06 03:54 54.17909 -10.54199 37087 ft 501 kts 100°
2026-05-06 03:54 54.16635 -10.42479 37085 ft 501 kts 100°
2026-05-06 03:55 54.15356 -10.30817 37084 ft 501 kts 100°
2026-05-06 03:55 54.14065 -10.19153 37084 ft 501 kts 100°
2026-05-06 03:56 54.12760 -10.07472 37091 ft 501 kts 100°
2026-05-06 03:56 54.11439 -9.95740 37087 ft 501 kts 101°
2026-05-06 03:57 54.10120 -9.84152 37083 ft 501 kts 101°
2026-05-06 03:57 54.08778 -9.72478 37079 ft 500 kts 101°
2026-05-06 03:58 54.07435 -9.60883 37083 ft 500 kts 101°
2026-05-06 03:58 54.06067 -9.49171 37087 ft 500 kts 101°
2026-05-06 03:59 54.04704 -9.37613 37085 ft 501 kts 101°
2026-05-06 03:59 54.03318 -9.25966 37081 ft 501 kts 101°
2026-05-06 04:00 54.01920 -9.14328 37082 ft 501 kts 101°
2026-05-06 04:00 54.00517 -9.02737 37086 ft 501 kts 101°
2026-05-06 04:01 53.99100 -8.91123 37089 ft 501 kts 102°
2026-05-06 04:01 53.97667 -8.79497 37087 ft 502 kts 102°
2026-05-06 04:02 53.96223 -8.67876 37083 ft 502 kts 102°
2026-05-06 04:02 53.94772 -8.56295 37081 ft 502 kts 102°
2026-05-06 04:03 53.93306 -8.44681 37070 ft 502 kts 102°
2026-05-06 04:03 53.91829 -8.33082 37081 ft 502 kts 102°
2026-05-06 04:04 53.90338 -8.21489 37079 ft 502 kts 102°
2026-05-06 04:04 53.88845 -8.09971 37073 ft 502 kts 103°
2026-05-06 04:05 53.87328 -7.98357 37070 ft 502 kts 103°
2026-05-06 04:05 53.85805 -7.86792 37073 ft 502 kts 103°
2026-05-06 04:06 53.84270 -7.75230 37068 ft 503 kts 103°
2026-05-06 04:06 53.82729 -7.63729 37067 ft 503 kts 103°
2026-05-06 04:07 53.81165 -7.52152 37057 ft 503 kts 103°
2026-05-06 04:07 53.79584 -7.40574 37059 ft 503 kts 103°
2026-05-06 04:08 53.78004 -7.29066 37056 ft 502 kts 103°
2026-05-06 04:08 53.76527 -7.17549 37050 ft 500 kts 102°
2026-05-06 04:09 53.75074 -7.06083 37053 ft 500 kts 103°
2026-05-06 04:09 53.73593 -6.94602 37050 ft 500 kts 103°
2026-05-06 04:10 53.72094 -6.83128 37046 ft 500 kts 103°
2026-05-06 04:10 53.70828 -6.73525 37046 ft 500 kts 103°
2026-05-06 04:11 53.69312 -6.62115 37042 ft 499 kts 103°
2026-05-06 04:11 53.67778 -6.50667 37043 ft 499 kts 103°
2026-05-06 04:12 53.66230 -6.39206 37038 ft 499 kts 103°
2026-05-06 04:12 53.64674 -6.27775 37038 ft 499 kts 103°
2026-05-06 04:13 53.63112 -6.16379 37035 ft 500 kts 104°
2026-05-06 04:13 53.61540 -6.05012 37034 ft 500 kts 104°
2026-05-06 04:14 53.59951 -5.93617 37033 ft 500 kts 104°
2026-05-06 04:14 53.58348 -5.82218 37028 ft 499 kts 104°
2026-05-06 04:15 53.56734 -5.70847 37029 ft 499 kts 104°
2026-05-06 04:15 53.55105 -5.59418 37026 ft 499 kts 103°
2026-05-06 04:16 53.53888 -5.47951 37031 ft 500 kts 97°
2026-05-06 04:16 53.53386 -5.36264 37033 ft 500 kts 92°
2026-05-06 04:17 53.53114 -5.24633 37031 ft 500 kts 92°
2026-05-06 04:17 53.52818 -5.12905 37020 ft 499 kts 93°
2026-05-06 04:18 53.52457 -5.01264 37029 ft 498 kts 93°
2026-05-06 04:18 53.52069 -4.89633 37029 ft 498 kts 93°
2026-05-06 04:19 53.51689 -4.77988 37031 ft 498 kts 93°
2026-05-06 04:19 53.51307 -4.66349 37026 ft 498 kts 93°
2026-05-06 04:20 53.50905 -4.54699 37036 ft 498 kts 94°
2026-05-06 04:20 53.50488 -4.43116 37035 ft 498 kts 94°
2026-05-06 04:21 53.50055 -4.31448 37034 ft 498 kts 94°
2026-05-06 04:21 53.49608 -4.19802 37035 ft 498 kts 94°
2026-05-06 04:22 53.49148 -4.08264 37034 ft 498 kts 95°
2026-05-06 04:23 53.47462 -3.91086 37039 ft 497 kts 105°
2026-05-06 04:23 53.45389 -3.79955 37038 ft 497 kts 110°
2026-05-06 04:24 53.43161 -3.68973 37047 ft 497 kts 107°
2026-05-06 04:24 53.41548 -3.57694 37044 ft 498 kts 101°
2026-05-06 04:25 53.40682 -3.46173 37040 ft 498 kts 95°
2026-05-06 04:25 53.40178 -3.34598 37047 ft 498 kts 94°
2026-05-06 04:26 53.39667 -3.23063 37049 ft 498 kts 95°
2026-05-06 04:26 53.39137 -3.11478 37039 ft 498 kts 94°
2026-05-06 04:27 53.38714 -2.99851 37048 ft 498 kts 94°
2026-05-06 04:27 53.38294 -2.88276 37046 ft 498 kts 94°
2026-05-06 04:28 53.37847 -2.76681 37049 ft 498 kts 94°
2026-05-06 04:28 53.37382 -2.65073 37037 ft 498 kts 94°
2026-05-06 04:29 53.36904 -2.53516 37042 ft 498 kts 95°
2026-05-06 04:29 53.36412 -2.41970 37041 ft 497 kts 95°
2026-05-06 04:30 53.35906 -2.30345 37044 ft 497 kts 95°
2026-05-06 04:30 53.35023 -2.18895 37045 ft 497 kts 100°
2026-05-06 04:31 53.33846 -2.07458 37045 ft 497 kts 101°
2026-05-06 04:31 53.32659 -1.96117 37036 ft 496 kts 101°
2026-05-06 04:32 53.31460 -1.84712 37048 ft 496 kts 101°
2026-05-06 04:32 53.30252 -1.73334 37038 ft 496 kts 101°
2026-05-06 04:33 53.29037 -1.61963 37039 ft 496 kts 101°
2026-05-06 04:33 53.27823 -1.50549 37037 ft 496 kts 101°
2026-05-06 04:34 53.26599 -1.39222 37037 ft 495 kts 101°
2026-05-06 04:34 53.25362 -1.27927 37039 ft 495 kts 101°
2026-05-06 04:35 53.24111 -1.16654 37032 ft 494 kts 101°
2026-05-06 04:35 53.22847 -1.05372 37036 ft 494 kts 101°
2026-05-06 04:36 53.21569 -0.94077 37023 ft 492 kts 102°
2026-05-06 04:36 53.20296 -0.82889 37022 ft 491 kts 102°
2026-05-06 04:37 53.19024 -0.71661 37009 ft 491 kts 102°
2026-05-06 04:37 53.17734 -0.60433 37014 ft 491 kts 102°
2026-05-06 04:38 53.16431 -0.49248 37008 ft 491 kts 102°
2026-05-06 04:38 53.15114 -0.38052 37017 ft 491 kts 102°
2026-05-06 04:39 53.13796 -0.26948 36983 ft 491 kts 102°
2026-05-06 04:39 53.12457 -0.15764 36991 ft 491 kts 102°
2026-05-06 04:40 53.11108 -0.04600 36985 ft 491 kts 102°
2026-05-06 04:40 53.09748 0.06577 37009 ft 491 kts 102°
2026-05-06 04:41 53.08389 0.17646 37008 ft 490 kts 103°
2026-05-06 04:41 53.07001 0.28845 36995 ft 490 kts 103°
2026-05-06 04:42 53.05620 0.39900 37001 ft 490 kts 103°
2026-05-06 04:42 53.04215 0.51056 36985 ft 490 kts 103°
2026-05-06 04:43 53.02803 0.62181 36989 ft 491 kts 103°
2026-05-06 04:43 53.01371 0.73369 36988 ft 493 kts 103°
2026-05-06 04:44 52.99934 0.84442 36973 ft 492 kts 103°
2026-05-06 04:44 52.98468 0.95535 36972 ft 490 kts 105°
2026-05-06 04:45 52.96530 1.06329 36971 ft 489 kts 111°
2026-05-06 04:45 52.94156 1.16872 36965 ft 488 kts 112°
2026-05-06 04:46 52.91754 1.27409 36963 ft 488 kts 112°
2026-05-06 04:46 52.89338 1.37984 36963 ft 488 kts 112°
2026-05-06 04:47 52.86935 1.48459 36956 ft 488 kts 112°
2026-05-06 04:47 52.84527 1.58924 36956 ft 487 kts 112°
2026-05-06 04:48 52.82104 1.69387 36943 ft 486 kts 112°
2026-05-06 04:48 52.79657 1.79906 36944 ft 486 kts 113°
2026-05-06 04:49 52.77220 1.90325 36947 ft 486 kts 113°
2026-05-06 04:49 52.74788 2.00679 36934 ft 486 kts 113°
2026-05-06 04:50 52.72330 2.11086 36935 ft 485 kts 113°
2026-05-06 04:50 52.69862 2.21491 36933 ft 484 kts 113°
2026-05-06 04:51 52.67395 2.31836 36931 ft 484 kts 113°
2026-05-06 04:51 52.64926 2.42140 36928 ft 484 kts 113°
2026-05-06 04:52 52.62449 2.52422 36920 ft 484 kts 113°
2026-05-06 04:52 52.59950 2.62737 36921 ft 483 kts 114°
2026-05-06 04:53 52.57446 2.73013 36922 ft 483 kts 114°
2026-05-06 04:53 52.54873 2.83225 36919 ft 482 kts 116°
2026-05-06 04:54 52.51796 2.93023 36919 ft 481 kts 120°
2026-05-06 04:54 52.48574 3.02650 36909 ft 480 kts 121°
2026-05-06 04:55 52.45365 3.12195 36910 ft 479 kts 121°
2026-05-06 04:55 52.42144 3.21744 36900 ft 479 kts 121°
2026-05-06 04:56 52.38897 3.31327 36902 ft 479 kts 121°
2026-05-06 04:56 52.35649 3.40860 36895 ft 479 kts 121°
2026-05-06 04:57 52.32412 3.50358 36887 ft 480 kts 121°
2026-05-06 04:57 52.29129 3.59925 36889 ft 480 kts 121°
2026-05-06 04:58 52.25874 3.69402 36888 ft 480 kts 122°
2026-05-06 04:58 52.22584 3.78911 36888 ft 480 kts 121°
2026-05-06 04:59 52.19840 3.86834 36884 ft 480 kts 121°
2026-05-06 04:59 52.16544 3.96323 36877 ft 479 kts 121°
2026-05-06 05:00 52.13257 4.05733 36880 ft 477 kts 121°
2026-05-06 05:00 52.09995 4.15055 36864 ft 477 kts 122°
2026-05-06 05:01 52.06697 4.24423 36865 ft 477 kts 121°
2026-05-06 05:01 52.03388 4.33814 36849 ft 477 kts 122°
2026-05-06 05:02 52.00087 4.43129 36851 ft 477 kts 121°
2026-05-06 05:02 51.96758 4.52492 36851 ft 477 kts 122°
2026-05-06 05:03 51.93475 4.61683 36850 ft 476 kts 122°
2026-05-06 05:03 51.90101 4.71096 36843 ft 476 kts 122°
2026-05-06 05:04 51.86761 4.80394 36847 ft 476 kts 122°
2026-05-06 05:04 51.83437 4.89597 36845 ft 476 kts 122°
2026-05-06 05:05 51.80057 4.98923 36849 ft 477 kts 122°
2026-05-06 05:05 51.76706 5.08136 36846 ft 477 kts 122°
2026-05-06 05:06 51.73347 5.17344 36846 ft 477 kts 122°
2026-05-06 05:06 51.69960 5.26592 36841 ft 477 kts 122°
2026-05-06 05:07 51.66580 5.35788 36821 ft 476 kts 122°
2026-05-06 05:07 51.63213 5.44918 36823 ft 476 kts 122°
2026-05-06 05:08 51.59815 5.54100 36826 ft 476 kts 122°
2026-05-06 05:08 51.56411 5.63261 36823 ft 476 kts 122°
2026-05-06 05:09 51.53005 5.72398 36825 ft 476 kts 122°
2026-05-06 05:09 51.49596 5.81508 36814 ft 475 kts 123°
2026-05-06 05:10 51.46209 5.90530 36800 ft 474 kts 123°
2026-05-06 05:10 51.42794 5.99592 36797 ft 474 kts 123°
2026-05-06 05:11 51.39376 6.08628 36799 ft 474 kts 123°
2026-05-06 05:11 51.35958 6.17635 36792 ft 474 kts 123°
2026-05-06 05:12 51.32522 6.26658 36770 ft 473 kts 123°
2026-05-06 05:12 51.29101 6.35608 36769 ft 473 kts 123°
2026-05-06 05:13 51.25654 6.44596 36767 ft 474 kts 123°
2026-05-06 05:13 51.22204 6.53560 36768 ft 474 kts 123°
2026-05-06 05:14 51.18730 6.62554 36771 ft 474 kts 123°
2026-05-06 05:14 51.15265 6.71494 36765 ft 474 kts 123°
2026-05-06 05:15 51.11800 6.80405 36762 ft 475 kts 123°
2026-05-06 05:15 51.08292 6.89391 36764 ft 475 kts 123°
2026-05-06 05:16 51.04796 6.98319 36768 ft 475 kts 124°
2026-05-06 05:16 51.01279 7.07266 36767 ft 475 kts 124°
2026-05-06 05:17 50.97786 7.16124 36765 ft 476 kts 124°
2026-05-06 05:17 50.94251 7.25056 36767 ft 477 kts 124°
2026-05-06 05:18 50.90710 7.33972 36767 ft 477 kts 124°
2026-05-06 05:18 50.87170 7.42854 36765 ft 477 kts 124°
2026-05-06 05:19 50.83604 7.51770 36762 ft 477 kts 124°
2026-05-06 05:19 50.80051 7.60627 36753 ft 478 kts 124°
2026-05-06 05:20 50.76489 7.69464 36750 ft 478 kts 124°
2026-05-06 05:20 50.72889 7.78363 36747 ft 478 kts 124°
2026-05-06 05:21 50.69292 7.87216 36743 ft 478 kts 124°
2026-05-06 05:21 50.65701 7.96013 36725 ft 478 kts 126°
2026-05-06 05:22 50.61673 8.04331 36748 ft 476 kts 134°
2026-05-06 05:22 50.57008 8.11667 36748 ft 473 kts 141°
2026-05-06 05:23 50.51802 8.17922 36749 ft 471 kts 149°
2026-05-06 05:23 50.43483 8.26228 36750 ft 471 kts 150°
2026-05-06 05:24 50.37972 8.31737 36762 ft 471 kts 149°
2026-05-06 05:24 50.32502 8.37482 36754 ft 472 kts 146°
2026-05-06 05:25 50.27417 8.44006 36758 ft 474 kts 140°
2026-05-06 05:25 50.22763 8.51351 36760 ft 476 kts 135°
2026-05-06 05:26 50.18255 8.58986 36766 ft 476 kts 135°
2026-05-06 05:26 50.13777 8.66524 36768 ft 476 kts 135°
2026-05-06 05:27 50.09272 8.74087 36768 ft 476 kts 135°
2026-05-06 05:27 50.04651 8.81565 36764 ft 475 kts 139°
2026-05-06 05:28 49.99788 8.88494 36765 ft 475 kts 140°
2026-05-06 05:28 49.94907 8.95391 36767 ft 475 kts 140°
2026-05-06 05:29 49.90038 9.02248 36766 ft 475 kts 140°
2026-05-06 05:29 49.85111 9.09163 36763 ft 475 kts 141°
2026-05-06 05:30 49.80208 9.16030 36760 ft 475 kts 141°
2026-05-06 05:30 49.75293 9.22879 36763 ft 475 kts 141°
2026-05-06 05:31 49.70384 9.29696 36776 ft 475 kts 141°
2026-05-06 05:31 49.65452 9.36532 36766 ft 475 kts 141°
2026-05-06 05:32 49.60669 9.43672 36781 ft 478 kts 136°
2026-05-06 05:32 49.56257 9.51394 36772 ft 479 kts 135°
2026-05-06 05:33 49.51876 9.59074 36786 ft 480 kts 135°
2026-05-06 05:33 49.47434 9.66822 36790 ft 480 kts 135°
2026-05-06 05:34 49.43021 9.74493 36794 ft 480 kts 135°
2026-05-06 05:34 49.38610 9.82145 36794 ft 480 kts 135°
2026-05-06 05:35 49.34181 9.89830 36784 ft 480 kts 135°
2026-05-06 05:35 49.29747 9.97477 36794 ft 479 kts 136°
2026-05-06 05:36 49.25313 10.05076 36795 ft 479 kts 136°
2026-05-06 05:36 49.20850 10.12700 36797 ft 479 kts 136°
2026-05-06 05:37 49.16426 10.20261 36809 ft 479 kts 136°
2026-05-06 05:37 49.11941 10.27800 36804 ft 477 kts 138°
2026-05-06 05:38 49.07332 10.35170 36830 ft 477 kts 139°
2026-05-06 05:38 49.02746 10.42487 36831 ft 476 kts 138°
2026-05-06 05:39 48.98205 10.49745 36839 ft 475 kts 139°
2026-05-06 05:39 48.93623 10.57043 36841 ft 475 kts 139°
2026-05-06 05:40 48.89054 10.64322 36838 ft 476 kts 139°
2026-05-06 05:40 48.84478 10.71562 36851 ft 476 kts 139°
2026-05-06 05:41 48.79892 10.78803 36823 ft 476 kts 139°
2026-05-06 05:41 48.75290 10.86034 36831 ft 475 kts 139°
2026-05-06 05:42 48.70694 10.93216 36824 ft 475 kts 139°
2026-05-06 05:42 48.66062 11.00443 36818 ft 476 kts 139°
2026-05-06 05:43 48.61456 11.07593 36818 ft 476 kts 139°
2026-05-06 05:43 48.56635 11.14345 36820 ft 470 kts 148°
2026-05-06 05:44 48.51637 11.20697 36760 ft 484 kts 129°
2026-05-06 05:44 48.50139 11.25370 36797 ft 498 kts 110°
2026-05-06 05:44 48.49717 11.30583 36787 ft 510 kts 90°
2026-05-06 05:45 48.50418 11.35823 36813 ft 518 kts 71°
2026-05-06 05:45 48.51500 11.39098 36832 ft 521 kts 58°
2026-05-06 05:45 48.55290 11.48356 36820 ft 518 kts 70°
2026-05-06 05:46 48.56658 11.55267 36835 ft 514 kts 81°
2026-05-06 05:46 48.57122 11.60559 36786 ft 507 kts 95°
2026-05-06 05:46 48.56843 11.64087 36797 ft 498 kts 109°
2026-05-06 05:46 48.55540 11.68819 36812 ft 484 kts 128°
2026-05-06 05:47 48.51497 11.76914 36823 ft 482 kts 132°
2026-05-06 05:47 48.47799 11.85333 36845 ft 485 kts 127°
2026-05-06 05:48 48.44414 11.94197 36843 ft 486 kts 125°
2026-05-06 05:48 48.41156 12.03021 36833 ft 475 kts 125°
2026-05-06 05:49 48.39560 12.07269 36826 ft 458 kts 129°
2026-05-06 05:49 48.37521 12.10706 36784 ft 423 kts 151°
2026-05-06 05:49 48.35026 12.12560 36777 ft 389 kts 174°
2026-05-06 05:49 48.32395 12.12719 36817 ft 369 kts 197°
2026-05-06 05:50 48.30110 12.11258 36829 ft 361 kts 219°
2026-05-06 05:50 48.28469 12.08427 36869 ft 363 kts 242°
2026-05-06 05:50 48.27801 12.04698 36848 ft 376 kts 265°
2026-05-06 05:50 48.28263 12.00782 36851 ft 393 kts 288°
2026-05-06 05:51 48.29795 11.97332 36850 ft 413 kts 310°
2026-05-06 05:51 48.32239 11.94882 36854 ft 432 kts 332°
2026-05-06 05:51 48.37582 11.90980 36845 ft 417 kts 313°
2026-05-06 05:52 48.39525 11.87894 36848 ft 404 kts 297°
2026-05-06 05:52 48.40807 11.84191 36850 ft 391 kts 281°
2026-05-06 05:52 48.41317 11.80229 36853 ft 380 kts 266°
2026-05-06 05:52 48.41044 11.76322 36852 ft 372 kts 251°
2026-05-06 05:53 48.40396 11.68610 36879 ft 380 kts 268°
2026-05-06 05:53 48.40795 11.60609 36851 ft 383 kts 270°
2026-05-06 05:54 48.41261 11.52563 36842 ft 384 kts 270°
2026-05-06 05:54 48.41726 11.44575 36837 ft 383 kts 270°
2026-05-06 05:55 48.42192 11.36559 36827 ft 383 kts 270°
2026-05-06 05:55 48.42657 11.28559 36818 ft 383 kts 270°
2026-05-06 05:56 48.43107 11.20509 36823 ft 384 kts 270°
2026-05-06 05:56 48.43534 11.12536 36826 ft 384 kts 270°
2026-05-06 05:57 48.43963 11.04500 36826 ft 384 kts 270°
2026-05-06 05:57 48.44392 10.96467 36824 ft 384 kts 270°
2026-05-06 05:58 48.44815 10.88475 36823 ft 383 kts 270°
2026-05-06 05:58 48.45236 10.80459 36830 ft 385 kts 270°
2026-05-06 05:59 48.45652 10.72353 36827 ft 386 kts 270°
2026-05-06 05:59 48.46063 10.64276 36822 ft 386 kts 270°
2026-05-06 06:00 48.46472 10.56238 36822 ft 386 kts 270°
2026-05-06 06:00 48.46884 10.48153 36824 ft 385 kts 270°
2026-05-06 06:01 48.47290 10.40099 36842 ft 386 kts 270°
2026-05-06 06:01 48.47691 10.31971 36822 ft 388 kts 270°
2026-05-06 06:02 48.48088 10.23854 36821 ft 388 kts 270°
2026-05-06 06:02 48.48483 10.15750 36820 ft 388 kts 270°
2026-05-06 06:03 48.48879 10.07577 36820 ft 388 kts 270°
2026-05-06 06:03 48.49269 9.99478 36811 ft 388 kts 270°
2026-05-06 06:04 48.49659 9.91316 36821 ft 390 kts 270°
2026-05-06 06:04 48.50045 9.83155 36802 ft 390 kts 270°
2026-05-06 06:05 48.50430 9.74982 36805 ft 390 kts 270°
2026-05-06 06:05 48.50815 9.66790 36799 ft 390 kts 270°
2026-05-06 06:06 48.51197 9.58601 36798 ft 390 kts 270°
2026-05-06 06:06 48.51578 9.50406 36799 ft 392 kts 270°
2026-05-06 06:07 48.51959 9.42144 36793 ft 393 kts 270°
2026-05-06 06:07 48.52333 9.33936 36792 ft 392 kts 270°
2026-05-06 06:08 48.52706 9.25713 36794 ft 392 kts 269°
2026-05-06 06:08 48.53079 9.17486 36793 ft 392 kts 269°
2026-05-06 06:09 48.53452 9.09211 36804 ft 393 kts 270°
2026-05-06 06:09 48.53809 9.01004 36798 ft 395 kts 269°
2026-05-06 06:10 48.54167 8.92708 36791 ft 395 kts 269°
2026-05-06 06:10 48.54522 8.84430 36798 ft 395 kts 269°
2026-05-06 06:11 48.54874 8.76178 36794 ft 395 kts 269°
2026-05-06 06:11 48.55229 8.67829 36808 ft 395 kts 269°
2026-05-06 06:12 48.55562 8.59537 36805 ft 396 kts 269°
2026-05-06 06:12 48.55883 8.51275 36800 ft 396 kts 269°
2026-05-06 06:13 48.56204 8.42939 36793 ft 396 kts 269°
2026-05-06 06:13 48.56523 8.34604 36802 ft 396 kts 269°
2026-05-06 06:14 48.56837 8.26365 36799 ft 396 kts 269°
2026-05-06 06:14 48.57152 8.18004 36796 ft 395 kts 269°
2026-05-06 06:15 48.57467 8.09682 36794 ft 395 kts 269°
2026-05-06 06:15 48.57777 8.01448 36794 ft 395 kts 269°
2026-05-06 06:16 48.58088 7.93145 36801 ft 396 kts 269°
2026-05-06 06:16 48.58398 7.84815 36795 ft 396 kts 269°
2026-05-06 06:17 48.58702 7.76491 36801 ft 397 kts 269°
2026-05-06 06:17 48.58993 7.68181 36793 ft 397 kts 269°
2026-05-06 06:18 48.59281 7.59882 36791 ft 397 kts 269°
2026-05-06 06:18 48.59569 7.51511 36791 ft 396 kts 269°
2026-05-06 06:19 48.59854 7.43222 36797 ft 397 kts 269°
2026-05-06 06:19 48.60135 7.34896 36806 ft 397 kts 269°
2026-05-06 06:20 48.60407 7.26523 36801 ft 398 kts 269°
2026-05-06 06:20 48.60674 7.18122 36801 ft 398 kts 269°
2026-05-06 06:21 48.60934 7.09803 36800 ft 398 kts 269°
2026-05-06 06:21 48.61193 7.01429 36802 ft 398 kts 269°
2026-05-06 06:22 48.61448 6.93088 36816 ft 398 kts 269°
2026-05-06 06:22 48.61693 6.84723 36809 ft 400 kts 269°
2026-05-06 06:23 48.61935 6.76277 36806 ft 400 kts 269°
2026-05-06 06:23 48.62174 6.67891 36801 ft 400 kts 269°
2026-05-06 06:24 48.62410 6.59511 36803 ft 400 kts 269°
2026-05-06 06:24 48.62643 6.51103 36811 ft 400 kts 269°
2026-05-06 06:25 48.62857 6.42655 36803 ft 401 kts 269°
2026-05-06 06:26 48.63160 6.30001 36802 ft 401 kts 269°
2026-05-06 06:26 48.63358 6.21597 36792 ft 401 kts 269°
2026-05-06 06:27 48.63554 6.13137 36796 ft 401 kts 269°
2026-05-06 06:27 48.63742 6.04674 36804 ft 402 kts 269°
2026-05-06 06:28 48.63895 5.96275 36797 ft 402 kts 269°